Location: Piotrkow Trybunalski
(51.4000°N, 19.6830°E)
Time: 17:59:31
(UTC+01:00)

Explorer 7 - Pass Details

Date: 21 December 2025
Orbit: 433 x 550 km, 50.2° (Epoch: 17 January)

Event Time Altitude Azimuth Distance (km) Brightness Sun altitude
Rises 16:30:20 0° 265° (W) 2,498 11.6 -8.1°
Reaches altitude 10° 16:32:31 10° 264° (W) 1,603 10.5 -8.4°
Maximum altitude 16:36:07 75° 179° (S) 468 6.5 -8.9°
Drops below altitude 10° 16:39:36 10° 94° (E) 1,555 8.6 -9.4°
Enters shadow 16:39:38 10° 94° (E) 1,569 8.6 -9.4°
